Austin, TX

12:00 AM CST on December 09, 2016 (GMT -0600)
Austin Bergstrom International

Weather History for KAUS - August, 2014

Change the Weather History Date:

Monday, August 11, 2014

  Actual Average Record
Temperature  
Mean Temperature 89 °F 84 °F  
Max Temperature 103 °F 97 °F 105 °F (1969)
Min Temperature 75 °F 72 °F 67 °F (2000)
Degree Days  
Heating Degree Days 0 0  
Month to date heating degree days 0 0  
Since 1 June heating degree days 0 0  
Since 1 July heating degree days 0 0  
Cooling Degree Days 24 19  
Month to date cooling degree days 217 209  
Year to date cooling degree days 1737 1769  
Since 1 June cooling degree days 1282 1262  
Growing Degree Days 38 (Base 50)    
Moisture  
Dew Point 71 °F    
Average Humidity 63    
Maximum Humidity 94    
Minimum Humidity 31    
Precipitation  
Precipitation T in 0.05 in 1.71 in (1966)
Month to date precipitation T 0.61  
Year to date precipitation 15.55 21.29  
Snow  
Snow 0.00 in - - ()
Month to date snowfall 0.0  
Since 1 June snowfall 0.0  
Since 1 July snowfall 0.0  
Snow Depth 0.00 in    
Sea Level Pressure  
Sea Level Pressure 29.99 in    
Wind  
Wind Speed 6 mph (SW)    
Max Wind Speed 36 mph    
Max Gust Speed 44 mph    
Visibility 10 miles    
Events Rain , Thunderstorm    
T = Trace of Precipitation, MM = Missing Value Source: NWS Daily Summary

Daily Weather History Graph

Daily Weather History Graph

Search for Another Location

Airport or City:

Trip Planner

Search our weather history database for the weather conditions in past years. The results will help you decide how hot, cold, wet, or windy it might be!

Date:

Astronomy

Aug. 11, 2014 Rise Set
Actual Time 6:55 AM CDT 8:15 PM CDT
Civil Twilight 6:30 AM CDT 8:41 PM CDT
Nautical Twilight 5:59 AM CDT 9:11 PM CDT
Astronomical Twilight 5:28 AM CDT 9:42 PM CDT
Moon 8:56 PM CDT (8/11) 7:54 AM CDT (8/11)
Length of Visible Light 14h 11m
Length of Day
13h 20m
Full, 99% of the Moon is Illuminated
Aug 11
Full
Aug 17
Last Quarter
Aug 25
New
Sep 2
First Quarter
Sep 8
Full

Hourly Weather History & Observations

Time (CDT) Temp. Heat Index Dew Point Humidity Pressure Visibility Wind Dir Wind Speed Gust Speed Precip Events Conditions
12:53 AM 81.0 °F 85.2 °F 72.0 °F 74% 30.00 in 10.0 mi South 5.8 mph - N/A   Partly Cloudy
1:53 AM 81.0 °F 85.2 °F 72.0 °F 74% 29.99 in 10.0 mi South 6.9 mph - N/A   Partly Cloudy
2:53 AM 78.1 °F - 72.0 °F 81% 29.99 in 10.0 mi South 6.9 mph - N/A   Scattered Clouds
3:53 AM 78.1 °F - 72.0 °F 81% 29.99 in 10.0 mi SSW 4.6 mph - N/A   Mostly Cloudy
4:53 AM 79.0 °F - 73.0 °F 82% 29.97 in 10.0 mi South 8.1 mph - N/A   Mostly Cloudy
5:53 AM 78.1 °F - 73.9 °F 87% 29.98 in 10.0 mi SSW 5.8 mph - N/A   Mostly Cloudy
6:53 AM 75.0 °F - 73.0 °F 94% 29.99 in 10.0 mi Calm Calm - N/A   Scattered Clouds
7:53 AM 77.0 °F - 73.9 °F 90% 30.01 in 10.0 mi Calm Calm - N/A   Scattered Clouds
8:53 AM 82.9 °F 89.4 °F 73.9 °F 74% 30.02 in 10.0 mi WSW 6.9 mph - N/A   Scattered Clouds
9:53 AM 87.1 °F 93.6 °F 72.0 °F 61% 30.02 in 10.0 mi SW 10.4 mph - N/A   Partly Cloudy
10:53 AM 91.0 °F 96.6 °F 70.0 °F 50% 30.02 in 10.0 mi WSW 9.2 mph - N/A   Partly Cloudy
11:53 AM 93.9 °F 100.3 °F 70.0 °F 46% 30.02 in 10.0 mi WSW 5.8 mph - N/A   Partly Cloudy
12:53 PM 97.0 °F 102.2 °F 68.0 °F 39% 30.00 in 10.0 mi WSW 3.5 mph - N/A   Scattered Clouds
1:53 PM 98.1 °F 102.4 °F 66.9 °F 36% 29.97 in 10.0 mi NNE 4.6 mph - N/A   Mostly Cloudy
2:53 PM 100.0 °F 103.6 °F 64.9 °F 32% 29.94 in 10.0 mi ENE 8.1 mph - N/A   Scattered Clouds
3:53 PM 100.9 °F 104.6 °F 64.9 °F 31% 29.93 in 10.0 mi NE 10.4 mph - N/A   Mostly Cloudy
4:53 PM 86.0 °F 89.4 °F 68.0 °F 55% 29.96 in 10.0 mi North 23.0 mph - N/A Thunderstorm Thunderstorm
5:53 PM 84.9 °F 87.6 °F 66.9 °F 55% 29.98 in 10.0 mi West 5.8 mph - N/A   Mostly Cloudy
6:53 PM 82.0 °F 86.3 °F 71.1 °F 69% 29.98 in 10.0 mi South 6.9 mph - N/A   Overcast
7:53 PM 82.9 °F 87.0 °F 70.0 °F 65% 29.94 in 10.0 mi NE 4.6 mph - N/A   Overcast
8:53 PM 82.0 °F 85.9 °F 70.0 °F 67% 29.97 in 10.0 mi NNW 8.1 mph - N/A   Overcast
9:53 PM 80.1 °F 84.2 °F 73.0 °F 79% 30.02 in 10.0 mi WSW 3.5 mph - 0.00 in Rain Light Rain
10:53 PM 80.1 °F 83.8 °F 72.0 °F 76% 30.00 in 10.0 mi Calm Calm - 0.00 in   Mostly Cloudy
11:53 PM 77.0 °F - 72.0 °F 84% 30.02 in 10.0 mi Calm Calm - N/A   Mostly Cloudy